This is the latest recevied weather packets stored in our database for station/object ER1XDX-13. If no packets are shown the sender has not sent any weather packets the latest 1 day(s).
| Time | Temp. | Humidity | Pressure | Rain* | Wind** | Luminosity | Snow |
|---|---|---|---|---|---|---|---|
| 1777910332 | 21.67° C | 28% | 1002.8 hPa | - | - | - | - |
| 1777909432 | 22.22° C | 28% | 1002.8 hPa | - | - | - | - |
| 1777908532 | 22.22° C | 28% | 1002.8 hPa | - | - | - | - |
| 1777907632 | 22.22° C | 29% | 1002.8 hPa | - | - | - | - |
| 1777906732 | 22.22° C | 30% | 1002.8 hPa | - | - | - | - |
| 1777905832 | 22.22° C | 33% | 1002.8 hPa | - | - | - | - |
| 1777904931 | 22.78° C | 34% | 1003 hPa | - | - | - | - |
| 1777904031 | 22.78° C | 34% | 1003.1 hPa | - | - | - | - |
| 1777903131 | 22.78° C | 33% | 1003.2 hPa | - | - | - | - |
| 1777902229 | 22.22° C | 32% | 1003.1 hPa | - | - | - | - |
| 1777901329 | 22.22° C | 31% | 1003.2 hPa | - | - | - | - |
| 1777900429 | 22.22° C | 30% | 1003.2 hPa | - | - | - | - |
| 1777899529 | 22.22° C | 32% | 1003.4 hPa | - | - | - | - |
| 1777898629 | 22.22° C | 31% | 1003.5 hPa | - | - | - | - |
| 1777897729 | 22.22° C | 29% | 1003.7 hPa | - | - | - | - |
| 1777896829 | 21.67° C | 28% | 1003.7 hPa | - | - | - | - |
| 1777895929 | 21.67° C | 27% | 1003.9 hPa | - | - | - | - |
| 1777895029 | 21.67° C | 26% | 1004.1 hPa | - | - | - | - |
| 1777894129 | 21.67° C | 27% | 1004.3 hPa | - | - | - | - |
| 1777893229 | 21.67° C | 27% | 1004.3 hPa | - | - | - | - |
| 1777892329 | 21.67° C | 26% | 1004.4 hPa | - | - | - | - |
| 1777891428 | 21.67° C | 27% | 1004.7 hPa | - | - | - | - |
| 1777890528 | 21.67° C | 28% | 1004.6 hPa | - | - | - | - |
| 1777889628 | 21.67° C | 30% | 1004.7 hPa | - | - | - | - |
| 1777888728 | 21.67° C | 29% | 1004.9 hPa | - | - | - | - |
* Rain since midnight (hover to see other rain measurements)
** Current wind speed in m/s (hover to see current wind gust speed)